Weather History for Parsons, KS

Change the Weather History Date:

Thursday, February 14, 2013

  Actual Average Record
Temperature  
Mean Temperature 40 °F -  
Max Temperature 54 °F 48 °F 76 °F (1954)
Min Temperature 26 °F 29 °F 12 °F (2007)
Degree Days  
Heating Degree Days 25    
Moisture  
Dew Point 29 °F    
Average Humidity 59    
Maximum Humidity 88    
Minimum Humidity 41    
Precipitation  
Precipitation 0.00 in - - ()
Sea Level Pressure  
Sea Level Pressure 30.09 in    
Wind  
Wind Speed 5 mph (NNW)    
Max Wind Speed 9 mph    
Max Gust Speed -    
Visibility 10 miles    
Events      
Averages and records for this station are not official NWS values.
T = Trace of Precipitation, MM = Missing Value Source: NWS Daily Summary

Daily Weather History Graph

Daily Weather History Graph

Search for Another Location

Airport:

Trip Planner

Search our weather history database for the weather conditions in past years. The results will help you decide how hot, cold, wet, or windy it might be!

Date:

Astronomy

Feb. 14, 2013 Rise Set
Actual Time 7:11 AM CST 6:00 PM CST
Civil Twilight 6:45 AM CST 6:27 PM CST
Nautical Twilight 6:14 AM CST 6:58 PM CST
Astronomical Twilight 5:44 AM CST 7:28 PM CST
Moon 9:21 AM CST (2/14) 10:56 PM CST (2/14)
Length of Visible Light 11h 42m
Length of Day
10h 49m
Waxing Crescent, 22% of the Moon is Illuminated
Feb 14
Waxing Crescent
Feb 17
First Quarter
Feb 25
Full
Mar 4
Last Quarter
Mar 11
New

Hourly Weather History & Observations

Time (CST) Temp. Windchill Dew Point Humidity Pressure Visibility Wind Dir Wind Speed Gust Speed Precip Events Conditions
1:52 AM 32.0 °F 27.5 °F 28.0 °F 85% 29.95 in 10.0 mi South 4.6 mph - N/A   Clear
3:52 AM 28.0 °F - 25.0 °F 88% 29.94 in 10.0 mi Calm Calm - N/A   Clear
4:52 AM 28.0 °F - 25.0 °F 88% 29.96 in 10.0 mi Calm Calm - N/A   Clear
6:52 AM 26.1 °F - 23.0 °F 88% 30.01 in 5.0 mi Calm Calm - N/A   Clear
7:52 AM 34.0 °F 31.0 °F 28.0 °F 79% 30.03 in 10.0 mi North 3.5 mph - N/A   Clear
8:52 AM 39.9 °F 34.5 °F 30.0 °F 68% 30.05 in 10.0 mi North 8.1 mph - N/A   Clear
9:52 AM 45.0 °F 41.2 °F 32.0 °F 60% 30.07 in 10.0 mi NNW 6.9 mph - N/A   Clear
10:52 AM 50.0 °F - 30.9 °F 48% 30.08 in 10.0 mi North 9.2 mph - N/A   Clear
11:52 AM 52.0 °F - 30.9 °F 45% 30.08 in 10.0 mi Variable 5.8 mph - N/A   Clear
12:52 PM 53.1 °F - 30.0 °F 41% 30.08 in 10.0 mi Variable 5.8 mph - N/A   Clear
1:52 PM 54.0 °F - 30.9 °F 41% 30.07 in 10.0 mi North 6.9 mph - N/A   Clear
2:52 PM 53.1 °F - 30.9 °F 43% 30.07 in 10.0 mi NW 6.9 mph - N/A   Clear
3:52 PM 53.1 °F - 30.9 °F 43% 30.09 in 10.0 mi NNW 9.2 mph - N/A   Partly Cloudy
4:52 PM 50.0 °F - 30.9 °F 48% 30.10 in 10.0 mi NNW 8.1 mph - N/A   Mostly Cloudy
5:52 PM 48.9 °F - 30.0 °F 48% 30.12 in 10.0 mi NW 5.8 mph - N/A   Overcast
6:52 PM 46.9 °F - 30.0 °F 52% 30.15 in 10.0 mi NNW 6.9 mph - N/A   Overcast
7:52 PM 46.9 °F - 27.0 °F 46% 30.17 in 10.0 mi NW 8.1 mph - N/A   Overcast
8:52 PM 45.0 °F 41.8 °F 28.9 °F 53% 30.19 in 10.0 mi WNW 5.8 mph - N/A   Overcast
9:52 PM 41.0 °F 38.0 °F 28.9 °F 62% 30.21 in 10.0 mi WNW 4.6 mph - N/A   Overcast
10:52 PM 41.0 °F 36.4 °F 28.9 °F 62% 30.22 in 10.0 mi NW 6.9 mph - N/A   Overcast
11:52 PM 41.0 °F 35.8 °F 27.0 °F 57% 30.22 in 10.0 mi NNW 8.1 mph - N/A   Overcast